Regional Weather Roundup
Issued by NWS

Home | Current Version | Previous Version | Text Only | Print | Product List | Glossary On
Versions: 1 2 3 4 5 6 7 8 9 10 11 12 13 14 15 16 17 18 19 20 21 22 23 24 25 26 27 28 29 30 31 32 33 34 35 36 37 38 39 40 41 42 43 44 45 46 47 48 49 50
000
ASUS44 KOUN 301710
RWROK

WEATHER ROUNDUP FOR OKLAHOMA
NATIONAL WEATHER SERVICE NORMAN OK
1200 PM CDT SAT MAY 30 2015

NOTE: "FAIR" INDICATES FEW OR NO CLOUDS BELOW 12,000 FEET WITH NO
      SIGNIFICANT WEATHER AND/OR OBSTRUCTIONS TO VISIBILITY.

OKZ001>007-009>012-014-015-017-301800-
NORTHWEST OKLAHOMA AND THE PANHANDLE

CITY           SKY/WX    TMP DP  RH WIND       PRES   REMARKS
GAGE           CLOUDY    62  50  64 N13       30.26R
GUYMON         CLOUDY    58  48  69 N10       30.30S
ENID/WOODRING  PTSUNNY   63  54  72 NW15G28   30.19R
$$

OKZ016-021>023-033>039-044-045-301800-
SOUTHWEST OKLAHOMA

CITY           SKY/WX    TMP DP  RH WIND       PRES   REMARKS
LAWTON/REGL    PTSUNNY   67  55  65 N15G22    30.19R
LAWTON/FT SILL CLOUDY    65  57  76 N18       30.17R
FREDERICK      MOSUNNY   69  56  62 N15       30.17R
CLINTON        CLOUDY    66  52  60 N17G24    30.23S
HOBART         PTSUNNY   65  54  67 N23       30.21R
ALTUS AFB      PTSUNNY   68  58  68 N15       30.19R
$$

OKZ018>020-024>031-301800-
CENTRAL OKLAHOMA

CITY           SKY/WX    TMP DP  RH WIND       PRES   REMARKS
OKLAHOMA CITY  CLOUDY    63  53  70 N14       30.18R
OKC/WILEY POST CLOUDY    61  53  75 N14       30.19R
OKC/TINKER AFB CLOUDY    63  53  70 N17       30.16S
STILLWATER     CLOUDY    63  53  70 NW15G21   30.18R
GUTHRIE        CLOUDY    61  52  72 NW9G17    30.19R
$$

OKZ008-013-054>072-301800-
NORTHEAST OKLAHOMA

CITY           SKY/WX    TMP DP  RH WIND       PRES   REMARKS
TULSA          CLOUDY    63  58  83 NW12      30.14R
TULSA/JONES    CLOUDY    63  57  81 N8        30.14R
PONCA CITY     CLOUDY    61  53  75 NW12G18   30.18S
BARTLESVILLE   CLOUDY    62  57  83 MISG      30.16R
MUSKOGEE       CLOUDY    64  62  93 NW15      30.13R
$$

OKZ032-040>043-046>053-073>077-301800-
SOUTH CENTRAL/SOUTHEAST OKLAHOMA

CITY           SKY/WX    TMP DP  RH WIND       PRES   REMARKS
ARDMORE/DWNTWN RAIN      61  61 100 CALM      30.15S
MCALESTER      CLOUDY    65  63  93 NW10      30.13R FOG
$$




USA.gov is the U.S. government's official web portal to all federal, state and local government web resources and services.